Theta_e
328 329 330 330 331 333 334 335 335 336 338 339 345 346 347 347 347 347 347 346 348 348 347 348 347 347 347 347 347 347 345 345 345 345 346 346 346 345 345 347 347 347 345
328 329 329 330 331 331 332 332 333 336 338 340 341 345 347 347 345 346 347 347 342 336 334 337 345 348 346 348 348 347 346 347 347 346 346 346 346 346 347 348 347 347 348
329 328 328 328 330 330 331 331 330 331 333 338 341 343 345 344 343 345 344 344 342 332 331 334 332 340 347 347 348 347 346 347 348 347 347 347 347 347 347 347 348 349 347
328 327 327 327 328 329 330 330 330 329 331 336 337 340 341 343 342 344 343 341 333 329 332 333 333 337 341 346 348 348 348 347 348 347 347 347 347 347 348 348 349 349 348
326 325 326 327 328 327 328 329 330 330 330 332 335 339 340 341 342 344 343 339 330 330 336 334 333 339 339 341 347 348 348 348 347 347 346 347 347 347 347 348 348 348 348
326 326 327 327 326 327 329 329 328 329 331 332 333 338 341 341 343 344 344 339 336 332 333 333 335 333 332 335 336 343 345 347 348 348 347 347 347 348 348 348 348 347 343
320 325 327 327 327 327 328 330 329 329 331 329 332 338 344 343 343 344 345 342 336 334 333 333 334 333 333 336 334 343 347 348 349 348 348 347 348 348 348 348 347 346 346
315 318 324 327 328 329 328 329 330 329 330 331 335 339 343 344 345 344 344 341 337 336 335 333 333 334 336 338 337 338 338 340 347 349 349 349 349 349 348 348 348 345 345
317 322 323 326 328 329 328 329 328 330 330 333 336 337 341 343 344 344 342 339 337 335 334 333 334 335 335 336 337 336 335 337 341 344 345 347 349 349 347 347 346 343 341
320 324 326 327 328 329 330 328 328 330 332 333 337 338 339 341 341 342 342 337 336 336 336 337 336 335 336 338 337 335 335 336 337 338 338 341 345 347 347 347 346 343 341
325 324 326 326 327 330 326 325 328 327 333 334 333 333 334 335 338 341 341 338 338 338 338 337 338 340 339 337 338 337 339 342 339 337 340 340 343 348 346 346 345 344 342
325 325 325 327 330 328 328 328 330 328 329 331 330 330 328 329 336 338 339 339 339 337 336 337 338 339 340 341 341 342 342 343 343 342 342 341 342 343 343 344 344 342 342
324 323 324 327 327 326 326 329 329 329 328 327 327 325 325 328 329 335 336 337 338 338 338 339 339 339 339 339 340 340 340 340 339 340 339 338 339 339 339 339 338 338 337
323 322 322 322 324 325 325 326 324 324 325 323 321 319 321 321 326 330 333 335 335 335 335 334 334 334 334 335 335 335 336 336 336 336 335 335 336 336 336 336 336 337 337
325 321 322 322 322 325 325 325 325 323 323 322 322 321 322 322 321 321 329 331 332 332 334 333 332 332 332 332 332 334 334 335 335 335 335 335 335 335 333 334 335 336 335
325 322 319 321 320 327 326 326 325 325 325 324 325 325 325 325 323 322 324 325 331 331 331 332 329 328 328 327 329 333 332 332 333 332 330 330 329 328 327 328 330 331 331
324 323 320 321 320 322 327 326 325 325 323 323 323 322 321 321 322 322 325 325 326 327 328 330 331 331 331 329 330 330 328 326 326 326 326 326 326 325 326 325 326 326 326
324 324 322 321 319 319 319 319 320 323 325 322 321 321 322 323 323 324 325 326 327 328 329 329 329 328 328 329 327 326 325 324 324 324 325 325 324 325 325 324 324 324 324
323 323 321 322 321 320 320 320 320 319 324 322 321 322 323 323 323 323 323 323 323 325 326 327 326 325 324 325 326 326 325 325 325 324 323 324 324 324 323 322 322 322 322
324 322 321 321 321 320 319 321 321 319 323 323 321 321 321 321 320 318 319 319 320 322 323 325 325 325 324 324 324 325 325 324 324 323 323 324 324 324 324 323 322 321 322
320 320 320 320 318 318 320 320 320 321 320 319 318 318 319 318 316 317 317 316 316 317 319 321 323 324 324 323 323 323 322 322 321 321 322 322 323 324 324 324 325 323 322
317 316 315 314 317 319 320 321 320 320 319 318 317 316 316 316 315 314 314 314 315 314 314 315 316 317 318 319 318 317 316 313 313 313 314 315 318 321 321 321 321 321 321
313 311 313 314 315 317 316 318 318 318 317 316 316 315 314 314 313 311 311 312 312 312 312 312 312 312 312 312 312 312 311 310 308 309 311 308 307 307 309 315 319 320 320
308 307 307 306 307 308 309 309 309 312 310 311 314 314 313 312 310 308 306 304 303 303 303 304 306 310 310 309 308 307 307 306 306 306 306 305 305 304 304 305 305 308 315
305 304 304 304 303 304 304 303 303 303 303 303 303 304 306 309 308 308 307 306 305 305 304 304 304 305 308 307 306 306 305 304 303 302 301 301 301 300 301 301 301 302 303
303 303 303 303 303 304 303 303 303 303 302 302 302 302 302 302 302 302 302 302 302 303 304 304 304 305 306 305 305 304 303 303 302 301 300 300 299 299 299 298 298 298 299
Wind_Speed
16 18 20 21 21 24 25 28 27 28 28 30 33 34 33 30 28 27 35 38 36 31 37 33 37 39 36 35 35 33 30 28 18 28 26 26 28 27 25 22 21 21 19
16 18 20 21 21 21 23 26 27 27 27 29 30 34 31 29 29 25 18 25 18 19 28 35 11 30 36 34 33 32 31 32 25 22 23 26 28 27 25 21 21 17 17
18 20 22 22 23 24 24 25 27 29 28 26 28 30 32 31 30 27 21 27 25 20 33 30 37 29 27 31 32 32 30 30 30 24 22 23 25 24 24 24 21 19 19
18 20 22 25 28 28 28 29 29 30 31 28 28 31 31 32 31 32 30 29 30 30 39 42 42 37 38 29 30 31 28 25 27 24 23 21 23 25 24 24 23 22 21
18 21 24 26 26 28 29 29 31 34 35 33 29 31 34 35 36 37 35 33 35 37 42 37 38 34 36 30 28 27 25 24 23 20 20 17 18 18 18 20 19 22 18
20 22 24 26 27 29 30 29 29 34 31 30 30 29 31 33 36 36 34 37 36 35 29 29 32 28 33 28 27 30 30 30 25 21 21 18 21 21 21 22 20 15 4
19 21 24 24 28 30 31 29 34 33 30 28 28 28 28 29 30 32 36 40 33 32 32 25 25 28 26 27 27 26 32 34 34 29 23 24 23 27 26 23 21 19 16
20 24 26 28 30 29 31 34 36 34 26 24 25 25 26 27 27 32 35 37 31 32 29 27 29 26 29 29 24 27 31 34 37 34 33 30 33 28 25 22 18 18 18
21 28 31 31 30 29 32 35 41 34 26 21 20 16 24 18 23 28 32 34 31 26 27 26 27 27 25 23 23 24 24 32 33 33 33 36 36 33 29 21 17 12 8
25 30 31 31 28 27 29 27 40 41 14 12 13 10 13 14 14 16 26 27 24 24 27 29 29 29 29 27 23 26 25 33 33 34 34 30 30 32 30 26 20 17 8
25 28 29 31 27 20 13 22 28 36 22 18 13 11 7 3 8 12 12 21 18 16 20 22 25 26 27 30 31 30 31 30 30 32 30 32 28 24 22 23 24 26 21
22 22 24 26 20 15 12 13 17 24 28 26 25 20 21 7 7 10 10 9 10 13 13 12 12 10 10 9 13 21 27 29 26 23 20 20 20 18 14 14 18 20 20
17 22 24 19 25 19 18 17 19 16 18 21 24 19 26 27 15 13 12 10 8 10 9 9 10 10 10 9 8 7 8 18 19 19 17 12 13 10 8 8 10 10 9
12 20 22 29 26 17 11 15 15 14 16 16 15 13 24 16 22 23 19 18 18 18 16 14 9 4 4 8 9 9 10 10 13 14 12 10 11 8 6 6 11 11 9
7 9 16 20 16 8 7 11 14 14 12 12 13 13 15 15 14 16 17 19 18 19 21 21 21 18 17 10 12 11 11 10 12 10 12 12 12 10 10 6 5 6 5
10 10 9 11 12 6 4 6 8 9 10 11 9 12 13 15 16 15 10 8 9 13 17 18 18 13 18 19 20 15 16 18 16 13 13 13 12 9 7 7 7 7 6
9 11 11 12 10 6 3 5 4 5 7 11 14 16 18 18 15 13 16 13 8 6 10 9 9 8 9 11 11 15 14 11 10 10 9 11 9 8 7 8 8 8 8
9 7 12 9 5 8 7 8 6 6 4 9 13 18 17 20 21 21 19 24 26 16 14 12 15 15 12 11 10 12 11 10 10 9 9 10 8 9 8 7 6 7 6
1 8 13 9 5 10 11 10 5 8 11 10 14 16 17 21 22 22 23 24 19 17 9 7 6 6 9 8 8 8 8 6 6 6 6 5 5 4 3 3 4 5 4
4 6 8 10 10 9 10 15 12 11 14 16 17 16 20 25 29 28 29 29 28 23 17 13 5 4 4 6 7 7 7 6 6 6 4 2 2 3 4 3 2 3 5
6 6 4 9 11 8 11 14 16 20 21 22 21 21 23 28 26 27 27 28 26 26 24 19 13 9 8 7 6 8 8 8 9 9 9 8 3 3 6 7 9 8 7
11 14 17 15 15 19 19 20 20 22 20 17 16 17 18 21 22 22 22 21 20 20 19 18 19 19 16 12 11 10 11 12 12 12 13 13 11 9 6 4 4 6 7
14 18 20 21 21 22 23 20 18 17 16 14 14 15 17 18 17 17 17 15 15 14 13 14 13 13 13 13 14 13 14 14 14 13 12 14 15 14 13 13 10 11 12
20 22 22 22 22 21 20 20 19 18 18 15 12 11 13 13 13 13 13 13 12 11 11 11 10 7 7 9 11 12 12 12 12 14 14 14 15 15 15 14 14 13 14
24 24 23 21 21 19 19 20 21 20 19 17 16 15 12 10 10 9 8 7 7 7 7 7 7 6 2 4 6 6 7 9 11 12 12 13 15 15 13 13 14 15 15
24 24 22 21 20 19 19 18 17 16 16 15 14 13 12 11 10 10 10 11 11 9 7 6 6 5 4 6 7 7 9 11 11 11 11 11 12 13 13 13 13 14 15
Wind_Direction
338 330 325 322 316 314 309 306 300 294 284 278 274 269 267 267 267 265 250 240 229 241 233 222 229 238 235 237 240 241 237 232 238 259 257 261 267 270 271 276 293 289 280
334 333 328 323 321 317 316 314 310 302 295 278 273 267 261 262 262 267 252 217 207 297 325 298 256 248 246 236 235 234 238 239 228 249 252 260 265 273 274 275 285 278 275
329 330 329 326 320 315 310 311 310 304 296 288 273 265 257 254 255 249 239 215 210 221 218 243 276 263 246 241 234 234 236 240 240 238 250 254 265 269 274 278 276 269 275
324 324 321 323 325 322 317 312 306 308 298 283 273 264 255 250 244 238 222 225 230 222 213 210 206 240 228 232 236 235 232 231 233 234 245 245 249 258 266 272 268 264 275
322 323 323 327 327 328 327 317 306 301 296 283 277 268 257 247 243 233 230 231 227 221 208 219 222 214 216 217 225 230 228 226 224 224 236 239 241 242 240 254 254 271 272
325 323 326 327 329 329 323 313 320 293 276 274 274 263 250 235 236 235 231 230 229 231 238 246 236 240 232 239 238 243 247 228 224 221 234 232 237 238 250 249 258 256 267
325 324 325 323 320 317 314 315 323 315 280 272 272 265 238 230 231 232 233 229 219 228 233 231 233 241 238 243 247 248 248 246 246 232 227 224 234 251 255 255 250 243 240
327 331 326 321 318 317 315 326 320 312 299 277 273 262 233 233 230 226 231 228 224 230 236 234 234 233 226 233 234 245 254 251 247 239 238 240 250 253 253 259 261 256 251
331 333 331 324 318 310 321 330 325 311 301 284 280 273 232 225 230 229 228 225 226 226 232 233 224 221 227 244 238 246 256 250 244 245 251 254 255 254 253 244 233 215 233
333 334 338 335 320 315 328 348 339 338 303 286 290 270 245 225 227 227 223 220 223 228 234 234 235 230 246 251 236 238 245 256 246 247 249 251 248 249 247 236 234 204 189
336 338 352 346 335 339 16 12 4 3 12 38 35 33 39 194 206 218 212 212 220 211 217 229 240 250 255 251 248 240 241 257 255 245 240 238 239 230 230 228 230 235 212
338 349 356 351 359 350 356 350 351 12 17 20 29 33 36 43 119 130 134 181 205 211 210 213 215 211 214 227 231 239 246 240 231 214 206 201 203 200 206 215 221 225 233
358 8 3 359 350 343 4 10 2 7 33 25 30 23 38 28 47 113 128 118 123 120 120 129 145 149 150 159 146 145 187 198 185 173 164 164 163 168 178 196 221 227 236
15 24 1 333 332 324 18 26 16 26 28 36 25 41 61 33 40 56 74 97 104 102 102 97 93 81 144 146 131 118 119 131 138 139 132 142 132 140 160 190 200 201 199
311 345 343 342 335 306 17 30 36 27 37 35 15 33 55 45 40 55 72 81 90 96 99 94 84 74 67 68 99 103 113 108 100 101 106 101 99 120 126 145 154 178 190
319 299 322 326 341 243 328 27 30 37 32 36 28 31 37 36 36 45 63 93 109 100 99 103 100 92 82 65 53 60 79 80 81 80 94 105 114 115 113 109 118 138 141
316 331 349 5 354 12 15 14 6 15 40 39 37 33 35 37 36 48 60 77 72 131 142 142 126 120 120 117 132 122 114 98 97 108 118 117 113 104 110 108 106 107 109
309 329 356 352 359 9 21 23 22 32 55 48 50 38 45 60 65 63 61 62 54 63 88 101 121 123 118 122 121 114 104 101 103 113 123 119 122 127 123 116 111 117 123
84 29 25 13 2 27 24 6 4 21 61 65 44 54 70 73 68 62 57 58 55 48 54 74 79 95 108 108 110 112 116 112 124 107 101 121 137 138 138 126 135 138 145
74 41 27 41 51 49 41 45 54 62 77 74 64 65 70 70 64 58 59 57 54 51 48 53 59 85 83 79 99 111 110 84 65 52 31 352 271 258 262 248 218 193 210
49 56 46 77 86 79 82 85 86 89 88 85 80 78 78 79 73 66 62 58 56 53 52 54 58 63 69 77 103 112 109 89 60 55 52 38 11 272 304 286 249 246 264
96 97 99 87 92 93 97 100 97 100 98 93 82 80 75 75 72 70 68 64 62 58 54 54 55 57 60 68 77 86 87 73 68 57 48 40 40 30 21 29 338 298 276
119 106 98 97 94 98 91 89 88 90 86 81 78 72 71 72 69 64 61 57 52 47 44 42 44 52 56 55 58 57 52 49 40 33 34 23 18 15 8 352 339 325 315
109 101 98 93 91 89 89 88 84 86 80 70 63 66 64 62 60 57 59 56 47 42 35 24 19 30 46 49 47 45 44 40 29 19 11 6 2 356 352 347 343 328 324
105 101 99 96 91 91 91 87 83 81 78 76 72 68 61 60 50 42 32 24 20 19 20 16 15 11 18 15 1 358 354 347 346 348 349 351 351 343 333 325 323 320 316
104 101 99 96 94 95 90 82 79 74 66 60 54 48 40 34 32 24 23 19 17 15 9 357 336 315 298 311 313 316 320 322 327 333 334 335 344 346 344 341 338 340 336